User: anonymous   Login
Location: Bergen
(60.3910°N, 5.3250°E)
Time: 00:34:05
(UTC+02:00)
Language:

Cosmos 1943 - Orbit

View from above orbital plane
View from above orbital plane
View from above satellite
View from above satellite

Ground track
Ground track

The orbit data is extracted from the following two-line orbital elements,

1 19119U 88039A   15091.20321177 -.00000110  00000-0 -32032-4 0  9996
2 19119 071.0063 358.4472 0012867 216.3129 297.7367 14.15005193387795
Epoch (UTC): 01 April 2015 04:52:37
Eccentricity: 0.0012867
inclination: 71.0063°
perigee height: 833 km
apogee height: 851 km
right ascension of ascending node: 358.4472°
argument of perigee: 216.3129°
revolutions per day: 14.15005193
mean anomaly at epoch: 297.7367°
orbit number at epoch: 38779

The dashed part of the orbit path shows where the satellite is in the earth's shadow,  

DLR